Wind_Speed
40 46 48 48 48 49 50 51 52 54 55 55 57 56 55 55 55 52 53 53 51 57 58 56 59 53 47 40 40 41 41 44 46 35 34 30 28 29 29 27 25 22 23
47 49 50 53 54 56 57 56 58 60 61 59 60 61 62 61 60 58 55 56 55 56 59 63 62 53 51 44 42 44 40 44 45 38 37 31 32 34 31 27 21 20 20
52 53 57 58 61 62 61 62 63 64 66 68 65 62 64 67 66 64 60 60 57 57 58 59 63 62 58 50 44 45 39 43 46 42 40 36 36 35 33 30 20 18 16
59 60 63 65 67 67 69 69 66 69 70 71 70 67 64 64 68 69 66 62 62 59 57 58 61 62 61 55 48 44 44 47 49 44 40 40 41 38 35 34 23 21 17
65 68 70 73 74 75 76 73 70 69 70 71 71 69 67 65 64 68 68 65 61 60 60 58 59 61 58 57 52 49 49 52 53 51 44 44 45 40 37 38 31 24 19
72 76 79 78 80 80 76 72 71 69 68 69 69 69 68 65 65 64 67 65 60 59 57 58 57 58 57 58 55 52 55 56 53 53 48 51 49 41 38 37 32 27 21
79 82 83 84 83 81 76 69 66 66 65 66 67 66 65 62 62 63 61 60 57 57 56 56 55 57 58 59 57 55 55 55 56 55 52 54 52 45 38 38 37 25 17
86 87 90 86 81 77 70 62 59 60 61 60 61 63 63 60 60 59 58 57 55 57 56 53 54 58 58 59 58 56 54 55 56 56 54 55 52 45 41 37 33 26 22
92 92 91 85 81 73 67 60 56 53 54 53 56 59 58 56 56 54 55 56 55 57 55 54 57 60 61 58 57 54 51 50 53 55 54 55 53 48 42 38 38 30 23
95 88 83 76 71 67 62 57 52 48 44 46 52 51 50 51 51 52 52 54 54 57 54 56 60 62 62 61 58 54 50 50 51 52 53 57 51 44 37 36 37 40 36
87 78 69 65 60 57 52 49 46 41 39 40 43 41 43 49 53 52 54 53 55 57 55 60 64 66 67 63 59 53 52 54 53 52 53 52 47 45 44 38 35 33 33
78 70 63 60 54 51 47 42 41 37 35 34 37 37 42 49 46 48 48 49 53 55 55 63 67 70 68 64 61 60 60 59 55 54 55 52 49 44 43 37 35 38 31
70 67 59 55 49 45 42 37 38 31 33 33 35 35 40 42 41 45 46 48 54 56 59 66 72 79 75 68 66 65 61 56 52 52 52 53 53 51 45 42 39 38 34
63 57 51 47 41 37 38 36 32 31 33 32 32 34 38 40 42 40 42 46 51 56 61 67 76 81 81 72 72 66 62 58 53 52 56 56 56 54 51 52 47 41 33
51 46 42 36 33 32 30 29 28 29 30 30 31 34 35 35 35 38 40 44 46 50 59 65 73 81 84 76 67 67 62 60 57 59 62 60 59 57 46 45 49 38 32
42 35 35 31 25 23 19 19 24 27 27 28 30 30 31 32 33 35 39 42 42 51 57 65 69 75 82 79 75 71 69 66 67 69 68 57 50 40 41 38 53 41 36
33 29 27 25 20 19 18 19 22 23 26 29 29 28 27 29 29 34 36 37 40 44 48 55 64 73 78 85 86 81 74 69 71 67 66 62 51 37 50 44 49 44 49
27 23 23 22 18 18 17 20 22 24 25 26 27 26 27 28 25 27 30 32 34 36 42 49 57 69 74 83 87 85 78 68 69 72 70 69 62 48 43 50 54 65 58
17 17 19 19 18 20 22 23 27 27 25 22 24 28 32 29 30 30 30 33 33 33 37 47 53 61 70 82 88 89 84 81 77 75 76 76 76 64 60 67 59 63 75
18 14 17 21 21 20 26 29 32 27 25 27 30 25 26 31 33 32 31 29 34 34 34 38 48 60 67 79 88 89 89 92 86 86 87 89 86 78 82 72 72 73 75
23 17 20 27 25 27 23 25 31 31 32 31 31 29 31 27 29 29 33 33 35 36 41 39 42 50 59 66 80 91 93 94 92 95 92 92 92 93 89 87 81 89 91
29 24 20 28 35 31 30 27 33 36 36 37 36 37 38 33 33 33 35 36 39 40 37 45 51 59 65 68 71 79 89 100 104 101 103 104 100 99 100 99 100 94 93
30 32 25 25 34 38 39 35 36 41 45 44 46 45 45 41 37 36 37 39 39 38 42 44 44 47 57 65 69 71 76 82 99 110 110 110 113 109 108 107 106 109 110
31 33 35 30 32 40 40 45 40 42 42 48 50 50 49 46 46 46 41 43 45 43 46 49 49 48 49 51 54 61 69 71 79 89 107 113 115 116 117 116 113 112 116
35 34 37 37 33 34 39 44 44 43 43 46 44 54 55 54 52 45 42 41 39 47 49 53 54 54 54 54 54 55 59 64 69 74 77 87 104 112 120 123 123 122 120
36 36 37 38 38 36 37 42 46 49 48 48 45 48 52 53 52 51 49 49 47 44 44 48 51 53 54 56 58 58 58 57 60 63 67 72 78 81 85 94 101 107 113
Wind_Direction
297 297 297 296 292 289 284 276 269 266 265 267 268 265 261 258 257 250 249 251 244 234 232 239 245 249 248 253 257 264 264 239 225 214 227 235 236 221 220 223 226 231 258
292 293 294 293 292 291 287 282 279 275 270 261 258 260 262 260 258 255 250 245 246 243 238 236 242 246 248 249 255 266 259 221 217 209 225 229 228 218 225 223 226 229 246
294 293 292 290 290 288 284 279 278 274 270 268 264 257 255 257 259 258 253 249 245 244 242 239 240 240 246 247 249 259 235 208 209 211 218 226 219 217 223 217 227 216 231
292 291 292 292 292 290 287 281 275 271 269 267 266 265 260 255 256 258 258 254 248 245 241 239 239 240 240 242 243 248 220 211 212 213 216 221 215 215 219 219 219 223 223
291 294 295 296 295 294 292 289 281 272 268 265 265 263 262 260 254 254 256 255 252 246 242 239 237 236 234 234 234 238 224 208 214 217 216 222 213 216 219 223 227 225 218
297 298 299 298 296 293 291 287 282 275 270 266 264 262 260 257 255 252 253 254 250 246 242 240 234 232 229 230 229 230 221 210 213 219 217 219 212 218 222 222 221 227 216
299 298 299 298 296 293 289 285 281 274 269 265 264 262 260 256 252 250 250 251 247 244 240 234 231 228 224 226 226 223 216 212 214 216 217 216 216 217 219 222 222 224 224
300 301 299 296 293 291 288 284 280 273 267 263 261 259 259 254 250 246 246 246 244 238 234 225 222 223 222 223 223 217 208 213 216 216 219 216 215 217 220 221 222 230 226
303 302 297 296 294 291 288 285 283 274 263 260 257 257 257 255 248 243 239 238 237 233 228 221 218 219 217 216 212 206 206 209 217 218 216 215 217 217 222 222 230 230 236
304 299 297 294 292 290 287 282 283 274 266 257 256 255 254 249 244 238 235 233 230 229 225 216 214 215 213 208 202 196 198 202 210 214 217 215 218 223 231 234 234 236 244
300 297 294 289 286 284 283 281 278 272 264 254 254 249 243 241 236 232 231 226 225 225 219 211 211 213 207 199 196 199 201 209 212 212 214 215 217 222 231 234 231 224 239
301 298 294 290 285 282 278 276 274 265 260 256 254 240 235 238 238 237 233 227 223 222 217 208 208 206 202 200 197 200 205 209 210 211 213 215 220 221 217 218 223 228 227
301 300 299 294 286 278 273 265 262 256 258 255 252 240 233 234 235 232 227 220 220 219 213 207 205 204 204 201 201 204 207 210 211 213 218 221 220 218 223 228 231 225 221
300 299 300 292 284 276 267 258 254 258 252 252 242 236 232 231 229 227 222 219 219 217 213 209 206 207 209 205 205 207 209 208 211 216 219 221 219 227 232 238 236 230 221
294 299 295 290 288 280 270 258 250 242 240 240 231 225 223 227 225 220 218 218 218 217 215 212 209 210 212 211 213 210 214 214 211 219 221 225 229 231 237 232 224 218 212
299 300 293 296 288 276 263 245 235 230 229 225 225 223 224 220 219 219 217 218 218 221 216 213 210 209 209 213 219 214 214 215 219 223 225 220 222 227 232 228 212 217 218
300 294 291 286 269 247 232 224 224 224 224 219 215 217 213 214 217 219 219 222 223 223 220 214 211 209 212 213 218 218 215 218 222 222 217 220 215 240 228 220 217 222 231
304 291 285 270 251 225 211 208 209 210 206 212 221 216 214 211 213 222 219 222 228 225 221 213 211 210 210 211 215 218 216 220 222 219 217 219 222 225 205 199 213 218 220
309 281 267 261 231 219 198 193 196 195 195 209 222 221 222 219 215 223 228 221 219 220 220 214 213 211 215 214 214 219 218 222 221 221 226 226 232 224 223 221 227 222 227
275 286 245 232 224 218 204 195 193 195 208 220 222 216 230 230 218 220 229 228 220 216 218 219 218 220 218 219 215 218 223 224 223 224 222 226 231 237 233 230 227 225 229
255 265 249 228 218 217 214 216 210 213 213 213 201 214 226 229 226 221 227 224 232 226 214 213 213 217 224 225 223 218 218 221 223 224 226 226 228 231 239 233 237 236 235
253 241 253 234 223 218 218 218 221 221 215 211 216 223 224 229 229 227 226 224 229 232 232 226 216 215 219 224 228 225 224 225 225 228 230 231 230 230 234 238 240 241 244
256 241 239 240 232 224 221 221 228 222 222 218 221 228 228 231 233 232 237 233 230 231 237 237 236 235 231 229 231 233 233 233 229 228 230 233 238 239 235 235 241 243 246
260 242 233 233 231 229 228 222 227 232 232 227 227 228 231 236 234 234 238 236 234 234 236 238 239 238 242 244 242 240 238 239 239 235 233 234 237 240 241 243 244 247 248
263 253 237 230 228 229 230 229 229 232 234 236 239 233 233 235 239 235 237 238 240 238 240 242 240 244 247 245 245 247 247 243 243 242 243 242 241 242 244 244 245 247 249
265 257 249 238 231 226 229 229 229 233 236 238 238 237 235 239 242 240 238 243 233 234 238 242 245 247 245 245 246 248 248 249 247 246 247 246 246 246 246 248 250 251 253
Height
10861 10857 10853 10851 10850 10848 10846 10843 10842 10840 10838 10836 10834 10834 10835 10836 10838 10842 10843 10842 10846 10850 10856 10859 10861 10865 10868 10873 10878 10879 10880 10884 10892 10903 10910 10917 10921 10924 10927 10930 10932 10935 10939
10851 10848 10844 10840 10837 10833 10829 10826 10823 10821 10818 10818 10818 10817 10816 10817 10819 10822 10827 10827 10830 10833 10838 10843 10845 10850 10857 10862 10865 10867 10867 10871 10882 10892 10900 10907 10912 10917 10922 10924 10927 10929 10931
10838 10834 10829 10824 10820 10815 10811 10807 10803 10800 10798 10795 10797 10799 10799 10798 10799 10802 10807 10811 10815 10818 10822 10828 10832 10837 10844 10850 10854 10857 10859 10862 10871 10880 10888 10897 10903 10908 10914 10917 10919 10921 10922
10821 10815 10809 10803 10798 10793 10788 10785 10783 10777 10775 10773 10774 10776 10779 10781 10781 10782 10786 10792 10798 10803 10808 10814 10819 10824 10832 10837 10843 10847 10851 10857 10863 10869 10879 10887 10893 10898 10904 10909 10911 10913 10914
10800 10794 10788 10782 10774 10768 10761 10756 10753 10753 10751 10750 10750 10752 10756 10758 10761 10763 10766 10772 10779 10786 10791 10797 10804 10810 10816 10823 10831 10834 10841 10848 10855 10859 10870 10878 10885 10891 10896 10900 10905 10906 10908
10777 10770 10763 10757 10748 10740 10735 10730 10725 10723 10723 10724 10726 10728 10732 10736 10738 10742 10746 10753 10761 10767 10773 10779 10786 10793 10802 10808 10817 10822 10829 10837 10844 10851 10859 10867 10874 10882 10887 10892 10898 10899 10901
10755 10746 10739 10732 10723 10713 10709 10704 10700 10699 10700 10701 10702 10705 10708 10713 10716 10722 10728 10735 10743 10749 10754 10761 10770 10778 10785 10793 10803 10809 10819 10829 10835 10842 10850 10855 10863 10870 10878 10881 10885 10892 10893
10729 10720 10707 10700 10692 10686 10681 10679 10675 10676 10677 10679 10680 10681 10686 10690 10694 10703 10710 10718 10725 10731 10737 10744 10754 10763 10773 10780 10789 10800 10810 10818 10825 10832 10840 10847 10854 10861 10867 10873 10878 10882 10885
10699 10690 10676 10669 10664 10659 10656 10653 10653 10655 10655 10658 10659 10662 10667 10669 10675 10684 10692 10699 10707 10714 10723 10731 10741 10749 10758 10768 10780 10789 10798 10806 10815 10823 10829 10837 10845 10851 10856 10860 10866 10872 10878
10670 10659 10650 10645 10639 10636 10634 10632 10634 10635 10637 10639 10640 10646 10649 10651 10658 10666 10675 10682 10690 10700 10712 10720 10729 10738 10748 10758 10770 10777 10787 10793 10801 10811 10819 10828 10837 10844 10850 10853 10856 10861 10867
10643 10634 10626 10620 10615 10614 10614 10616 10617 10618 10619 10622 10624 10630 10633 10633 10639 10648 10656 10666 10676 10686 10696 10706 10716 10727 10739 10750 10759 10768 10774 10781 10792 10803 10813 10822 10828 10833 10839 10843 10847 10851 10855
10618 10610 10603 10598 10596 10595 10596 10598 10600 10601 10602 10606 10608 10613 10616 10619 10628 10638 10648 10658 10666 10674 10685 10695 10705 10718 10729 10740 10749 10755 10761 10773 10786 10796 10803 10809 10814 10821 10826 10830 10834 10838 10841
10597 10589 10584 10578 10577 10577 10579 10581 10583 10588 10590 10592 10596 10600 10605 10610 10619 10626 10635 10644 10652 10661 10672 10682 10693 10706 10719 10729 10737 10744 10755 10768 10776 10785 10792 10798 10803 10808 10814 10819 10823 10825 10828
10577 10574 10569 10562 10560 10561 10562 10566 10571 10575 10577 10582 10585 10591 10597 10600 10607 10618 10624 10631 10639 10649 10660 10671 10682 10694 10703 10716 10726 10735 10745 10757 10766 10774 10780 10785 10790 10797 10802 10805 10810 10814 10817
10563 10559 10555 10551 10549 10549 10551 10555 10559 10563 10568 10572 10577 10582 10587 10593 10600 10606 10613 10620 10631 10640 10650 10660 10671 10682 10695 10707 10716 10726 10737 10746 10753 10760 10766 10773 10780 10786 10790 10793 10798 10801 10804
10553 10549 10544 10542 10541 10541 10542 10546 10550 10555 10560 10564 10569 10575 10580 10587 10593 10599 10605 10612 10620 10624 10636 10647 10658 10671 10684 10697 10706 10714 10723 10732 10738 10743 10750 10761 10768 10770 10776 10777 10783 10786 10787
10545 10542 10538 10535 10533 10534 10537 10542 10546 10550 10554 10558 10563 10568 10575 10581 10586 10592 10598 10605 10611 10618 10626 10636 10647 10657 10667 10679 10689 10698 10707 10715 10722 10732 10740 10748 10753 10754 10756 10765 10769 10773 10776
10537 10534 10532 10530 10530 10531 10535 10538 10542 10546 10550 10556 10560 10565 10570 10575 10580 10584 10591 10597 10602 10609 10617 10626 10636 10645 10654 10663 10672 10684 10695 10704 10712 10720 10726 10734 10739 10744 10745 10748 10740 10751 10755
10530 10527 10527 10526 10526 10527 10530 10534 10538 10542 10547 10552 10555 10559 10563 10569 10573 10577 10581 10588 10594 10600 10606 10614 10622 10629 10634 10644 10657 10668 10678 10689 10696 10705 10714 10720 10724 10731 10729 10727 10730 10734 10739
10523 10522 10520 10522 10523 10524 10527 10530 10534 10537 10541 10545 10549 10552 10556 10560 10565 10569 10574 10578 10585 10591 10597 10603 10610 10617 10621 10631 10642 10652 10663 10674 10682 10689 10693 10698 10705 10710 10716 10718 10718 10719 10723
10515 10514 10513 10513 10516 10519 10521 10524 10529 10531 10534 10538 10540 10543 10548 10552 10555 10559 10564 10569 10573 10578 10586 10593 10599 10605 10611 10618 10626 10636 10644 10653 10660 10665 10670 10676 10681 10687 10693 10696 10699 10702 10702
10502 10504 10504 10504 10506 10509 10513 10516 10518 10523 10526 10530 10532 10535 10540 10545 10549 10552 10555 10559 10564 10569 10573 10580 10586 10591 10596 10599 10603 10611 10620 10628 10635 10640 10645 10650 10655 10660 10666 10670 10674 10677 10681
10487 10490 10493 10493 10495 10499 10502 10505 10508 10512 10514 10518 10522 10525 10530 10535 10539 10541 10545 10549 10553 10559 10563 10566 10571 10576 10581 10586 10592 10596 10599 10604 10612 10618 10624 10628 10633 10637 10640 10645 10650 10653 10655
10471 10473 10477 10481 10482 10484 10489 10493 10497 10501 10503 10507 10510 10514 10518 10521 10526 10529 10533 10537 10541 10547 10548 10553 10558 10562 10564 10567 10572 10575 10580 10586 10591 10595 10600 10606 10609 10613 10616 10621 10624 10627 10630
10456 10458 10461 10465 10469 10472 10475 10481 10485 10488 10490 10494 10497 10502 10506 10509 10512 10514 10519 10523 10527 10531 10533 10536 10541 10545 10548 10551 10556 10557 10560 10563 10566 10569 10574 10577 10583 10587 10592 10594 10595 10599 10602
10440 10441 10444 10450 10455 10458 10461 10465 10470 10474 10477 10480 10483 10487 10491 10494 10497 10500 10505 10508 10512 10515 10518 10520 10525 10528 10530 10532 10536 10538 10541 10544 10546 10550 10551 10553 10556 10558 10561 10564 10568 10571 10574